Time,TemperatureF,DewpointF,PressureIn,WindDirection,WindDirectionDegrees,WindSpeedMPH,WindSpeedGustMPH,Humidity,HourlyPrecipIn,Conditions,Clouds,dailyrainin,SoftwareType,DateUTC
2013-02-22 00:00:00,20.8,16.5,30.44,North,0,1.0,4.0,83,0.00,,,0.00,VWS V14.01,2013-02-22 05:00:00,
2013-02-22 00:05:00,20.7,16.4,30.43,SW,225,2.0,5.0,83,0.00,,,0.00,VWS V14.01,2013-02-22 05:05:00,
2013-02-22 00:10:00,20.6,16.3,30.43,SW,225,0.0,2.0,83,0.00,,,0.00,VWS V14.01,2013-02-22 05:10:00,
2013-02-22 00:15:00,20.6,16.3,30.43,SW,225,1.0,3.0,83,0.00,,,0.00,VWS V14.01,2013-02-22 05:15:00,
2013-02-22 00:20:00,20.5,16.2,30.43,SW,225,1.0,3.0,83,0.00,,,0.00,VWS V14.01,2013-02-22 05:20:00,
2013-02-22 00:25:00,20.4,16.4,30.44,SW,225,0.0,2.0,84,0.00,,,0.00,VWS V14.01,2013-02-22 05:25:00,
2013-02-22 00:30:00,20.4,16.4,30.44,SW,225,1.0,4.0,84,0.00,,,0.00,VWS V14.01,2013-02-22 05:30:00,
2013-02-22 00:35:00,20.3,16.2,30.43,SW,225,1.0,3.0,84,0.00,,,0.00,VWS V14.01,2013-02-22 05:35:00,
2013-02-22 00:40:00,20.4,16.4,30.42,SW,225,0.0,0.0,84,0.00,,,0.00,VWS V14.01,2013-02-22 05:40:00,
2013-02-22 00:45:00,20.5,16.7,30.42,SW,225,0.0,0.0,85,0.00,,,0.00,VWS V14.01,2013-02-22 05:45:00,
2013-02-22 00:50:00,20.7,16.6,30.42,SW,225,0.0,0.0,84,0.00,,,0.00,VWS V14.01,2013-02-22 05:50:00,
2013-02-22 00:55:00,20.7,16.6,30.41,SW,225,1.0,3.0,84,0.00,,,0.00,VWS V14.01,2013-02-22 05:55:00,
2013-02-22 01:00:00,20.7,16.6,30.41,SW,225,0.0,1.0,84,0.00,,,0.00,VWS V14.01,2013-02-22 06:00:00,
2013-02-22 01:05:00,20.9,17.1,30.41,SW,225,0.0,4.0,85,0.00,,,0.00,VWS V14.01,2013-02-22 06:05:00,
2013-02-22 01:10:00,20.9,16.8,30.41,SW,225,0.0,3.0,84,0.00,,,0.00,VWS V14.01,2013-02-22 06:10:00,
2013-02-22 01:15:00,20.8,16.7,30.41,SW,225,0.0,2.0,84,0.00,,,0.00,VWS V14.01,2013-02-22 06:15:00,
2013-02-22 01:20:00,20.9,17.1,30.41,SW,225,0.0,0.0,85,0.00,,,0.00,VWS V14.01,2013-02-22 06:20:00,
2013-02-22 01:25:00,21.0,16.9,30.41,SW,225,0.0,3.0,84,0.00,,,0.00,VWS V14.01,2013-02-22 06:25:00,
2013-02-22 01:30:00,21.1,17.0,30.41,SW,225,0.0,2.0,84,0.00,,,0.00,VWS V14.01,2013-02-22 06:30:00,
2013-02-22 01:35:00,21.2,17.1,30.41,SW,225,0.0,0.0,84,0.00,,,0.00,VWS V14.01,2013-02-22 06:35:00,
2013-02-22 01:40:00,21.4,17.3,30.40,SW,225,0.0,2.0,84,0.00,,,0.00,VWS V14.01,2013-02-22 06:40:00,
2013-02-22 01:45:00,21.5,17.4,30.40,SW,225,0.0,1.0,84,0.00,,,0.00,VWS V14.01,2013-02-22 06:45:00,
2013-02-22 01:50:00,21.6,17.5,30.40,SW,225,0.0,0.0,84,0.00,,,0.00,VWS V14.01,2013-02-22 06:50:00,
2013-02-22 01:55:00,21.8,17.7,30.41,SW,225,0.0,0.0,84,0.00,,,0.00,VWS V14.01,2013-02-22 06:55:00,
2013-02-22 02:00:00,22.1,17.7,30.41,SW,225,0.0,0.0,83,0.00,,,0.00,VWS V14.01,2013-02-22 07:00:00,
2013-02-22 02:05:00,22.1,17.5,30.41,SW,225,0.0,2.0,82,0.00,,,0.00,VWS V14.01,2013-02-22 07:05:00,
2013-02-22 02:10:00,21.9,17.5,30.40,SW,225,1.0,4.0,83,0.00,,,0.00,VWS V14.01,2013-02-22 07:10:00,
2013-02-22 02:15:00,21.7,17.3,30.40,SW,225,1.0,3.0,83,0.00,,,0.00,VWS V14.01,2013-02-22 07:15:00,
2013-02-22 02:20:00,21.5,17.1,30.40,SW,225,1.0,3.0,83,0.00,,,0.00,VWS V14.01,2013-02-22 07:20:00,
2013-02-22 02:25:00,21.3,17.2,30.41,SW,225,1.0,3.0,84,0.00,,,0.00,VWS V14.01,2013-02-22 07:25:00,
2013-02-22 02:30:00,21.3,17.2,30.41,SW,225,0.0,2.0,84,0.00,,,0.00,VWS V14.01,2013-02-22 07:30:00,
2013-02-22 02:35:00,21.4,17.6,30.41,SW,225,0.0,0.0,85,0.00,,,0.00,VWS V14.01,2013-02-22 07:35:00,
2013-02-22 02:40:00,21.6,17.8,30.40,SW,225,0.0,2.0,85,0.00,,,0.00,VWS V14.01,2013-02-22 07:40:00,
2013-02-22 02:45:00,21.6,17.5,30.40,ESE,112,2.0,4.0,84,0.00,,,0.00,VWS V14.01,2013-02-22 07:45:00,
2013-02-22 02:50:00,21.4,17.3,30.41,ESE,112,1.0,3.0,84,0.00,,,0.00,VWS V14.01,2013-02-22 07:50:00,
2013-02-22 02:55:00,21.3,17.5,30.41,ESE,112,0.0,1.0,85,0.00,,,0.00,VWS V14.01,2013-02-22 07:55:00,
2013-02-22 03:00:00,21.3,17.5,30.41,ESE,112,0.0,0.0,85,0.00,,,0.00,VWS V14.01,2013-02-22 08:00:00,
2013-02-22 03:05:00,21.4,17.6,30.40,ESE,112,0.0,0.0,85,0.00,,,0.00,VWS V14.01,2013-02-22 08:05:00,
2013-02-22 03:10:00,21.5,17.7,30.40,ESE,112,0.0,1.0,85,0.00,,,0.00,VWS V14.01,2013-02-22 08:10:00,
2013-02-22 03:15:00,21.7,17.9,30.40,ESE,112,0.0,0.0,85,0.00,,,0.00,VWS V14.01,2013-02-22 08:15:00,
2013-02-22 03:20:00,21.6,17.5,30.40,ESE,112,0.0,0.0,84,0.00,,,0.00,VWS V14.01,2013-02-22 08:20:00,
2013-02-22 03:25:00,21.6,17.8,30.40,ESE,112,0.0,0.0,85,0.00,,,0.00,VWS V14.01,2013-02-22 08:25:00,
2013-02-22 03:30:00,21.8,18.0,30.39,ESE,112,0.0,0.0,85,0.00,,,0.00,VWS V14.01,2013-02-22 08:30:00,
2013-02-22 03:35:00,22.1,18.0,30.39,ESE,112,0.0,0.0,84,0.00,,,0.00,VWS V14.01,2013-02-22 08:35:00,
2013-02-22 03:40:00,22.2,18.1,30.39,ESE,112,0.0,0.0,84,0.00,,,0.00,VWS V14.01,2013-02-22 08:40:00,
2013-02-22 03:45:00,22.4,18.0,30.38,ESE,112,0.0,0.0,83,0.00,,,0.00,VWS V14.01,2013-02-22 08:45:00,
2013-02-22 03:50:00,22.1,18.0,30.38,ESE,112,0.0,0.0,84,0.00,,,0.00,VWS V14.01,2013-02-22 08:50:00,
2013-02-22 03:55:00,21.9,17.8,30.38,ESE,112,0.0,0.0,84,0.00,,,0.00,VWS V14.01,2013-02-22 08:55:00,
2013-02-22 04:00:00,21.9,18.1,30.38,ESE,112,0.0,0.0,85,0.00,,,0.00,VWS V14.01,2013-02-22 09:00:00,
2013-02-22 04:05:00,22.1,18.3,30.39,ESE,112,0.0,0.0,85,0.00,,,0.00,VWS V14.01,2013-02-22 09:05:00,
2013-02-22 04:10:00,22.3,18.2,30.39,ESE,112,0.0,0.0,84,0.00,,,0.00,VWS V14.01,2013-02-22 09:10:00,
2013-02-22 04:15:00,22.2,18.1,30.39,ESE,112,0.0,0.0,84,0.00,,,0.00,VWS V14.01,2013-02-22 09:15:00,
2013-02-22 04:20:00,22.2,18.1,30.39,ESE,112,0.0,0.0,84,0.00,,,0.00,VWS V14.01,2013-02-22 09:20:00,
2013-02-22 04:25:00,22.2,18.1,30.39,ESE,112,0.0,0.0,84,0.00,,,0.00,VWS V14.01,2013-02-22 09:25:00,
2013-02-22 04:30:00,22.0,17.6,30.39,ESE,112,0.0,1.0,83,0.00,,,0.00,VWS V14.01,2013-02-22 09:30:00,
2013-02-22 04:35:00,21.6,17.2,30.39,SW,225,1.0,3.0,83,0.00,,,0.00,VWS V14.01,2013-02-22 09:35:00,
2013-02-22 04:40:00,21.2,16.9,30.39,SW,225,0.0,0.0,83,0.00,,,0.00,VWS V14.01,2013-02-22 09:40:00,
2013-02-22 04:45:00,20.8,16.2,30.38,SW,225,0.0,0.0,82,0.00,,,0.00,VWS V14.01,2013-02-22 09:45:00,
2013-02-22 04:50:00,20.2,15.9,30.38,SW,225,0.0,0.0,83,0.00,,,0.00,VWS V14.01,2013-02-22 09:50:00,
2013-02-22 04:55:00,19.7,15.4,30.38,SW,225,0.0,0.0,83,0.00,,,0.00,VWS V14.01,2013-02-22 09:55:00,
2013-02-22 05:00:00,19.2,14.9,30.38,SW,225,0.0,0.0,83,0.00,,,0.00,VWS V14.01,2013-02-22 10:00:00,
2013-02-22 05:05:00,18.7,14.4,30.39,SW,225,0.0,0.0,83,0.00,,,0.00,VWS V14.01,2013-02-22 10:05:00,
2013-02-22 05:10:00,18.2,14.2,30.40,SW,225,0.0,0.0,84,0.00,,,0.00,VWS V14.01,2013-02-22 10:10:00,
2013-02-22 05:15:00,17.9,14.2,30.41,SW,225,0.0,0.0,85,0.00,,,0.00,VWS V14.01,2013-02-22 10:15:00,
2013-02-22 05:20:00,17.7,14.0,30.42,SW,225,0.0,0.0,85,0.00,,,0.00,VWS V14.01,2013-02-22 10:20:00,
2013-02-22 05:25:00,17.4,13.7,30.42,SW,225,0.0,0.0,85,0.00,,,0.00,VWS V14.01,2013-02-22 10:25:00,
2013-02-22 05:30:00,16.9,13.2,30.42,SW,225,0.0,0.0,85,0.00,,,0.00,VWS V14.01,2013-02-22 10:30:00,
2013-02-22 05:35:00,16.8,13.4,30.42,SW,225,0.0,0.0,86,0.00,,,0.00,VWS V14.01,2013-02-22 10:35:00,
2013-02-22 05:40:00,16.6,13.1,30.43,SW,225,0.0,0.0,86,0.00,,,0.00,VWS V14.01,2013-02-22 10:40:00,
2013-02-22 05:45:00,16.4,12.9,30.44,SW,225,0.0,0.0,86,0.00,,,0.00,VWS V14.01,2013-02-22 10:45:00,
2013-02-22 05:50:00,16.4,13.2,30.44,SW,225,0.0,0.0,87,0.00,,,0.00,VWS V14.01,2013-02-22 10:50:00,
2013-02-22 05:55:00,16.6,13.4,30.44,SW,225,0.0,2.0,87,0.00,,,0.00,VWS V14.01,2013-02-22 10:55:00,
2013-02-22 06:00:00,16.5,13.3,30.44,SW,225,1.0,3.0,87,0.00,,,0.00,VWS V14.01,2013-02-22 11:00:00,
2013-02-22 06:05:00,16.6,13.4,30.43,SW,225,2.0,4.0,87,0.00,,,0.00,VWS V14.01,2013-02-22 11:05:00,
2013-02-22 06:10:00,16.8,13.6,30.44,North,0,1.0,4.0,87,0.00,,,0.00,VWS V14.01,2013-02-22 11:10:00,
2013-02-22 06:15:00,16.7,13.5,30.44,North,0,0.0,0.0,87,0.00,,,0.00,VWS V14.01,2013-02-22 11:15:00,
2013-02-22 06:20:00,16.3,13.1,30.45,North,0,1.0,3.0,87,0.00,,,0.00,VWS V14.01,2013-02-22 11:20:00,
2013-02-22 06:25:00,16.2,13.3,30.45,NW,315,3.0,5.0,88,0.00,,,0.00,VWS V14.01,2013-02-22 11:25:00,
2013-02-22 06:30:00,16.5,13.6,30.45,NW,315,3.0,5.0,88,0.00,,,0.00,VWS V14.01,2013-02-22 11:30:00,
2013-02-22 06:35:00,16.8,13.9,30.46,NW,315,2.0,4.0,88,0.00,,,0.00,VWS V14.01,2013-02-22 11:35:00,
2013-02-22 06:40:00,16.9,14.0,30.45,NW,315,4.0,7.0,88,0.00,,,0.00,VWS V14.01,2013-02-22 11:40:00,
2013-02-22 06:45:00,17.1,14.2,30.45,NW,315,1.0,4.0,88,0.00,,,0.00,VWS V14.01,2013-02-22 11:45:00,
2013-02-22 06:50:00,16.9,13.7,30.45,NW,315,0.0,1.0,87,0.00,,,0.00,VWS V14.01,2013-02-22 11:50:00,
2013-02-22 06:55:00,16.2,12.8,30.45,NW,315,0.0,0.0,86,0.00,,,0.00,VWS V14.01,2013-02-22 11:55:00,
2013-02-22 07:00:00,15.5,12.1,30.45,NW,315,1.0,2.0,86,0.00,,,0.00,VWS V14.01,2013-02-22 12:00:00,
2013-02-22 07:05:00,14.9,11.7,30.45,NW,315,1.0,3.0,87,0.00,,,0.00,VWS V14.01,2013-02-22 12:05:00,
2013-02-22 07:10:00,14.7,11.5,30.46,NW,315,0.0,2.0,87,0.00,,,0.00,VWS V14.01,2013-02-22 12:10:00,
2013-02-22 07:15:00,14.5,11.3,30.46,NW,315,0.0,1.0,87,0.00,,,0.00,VWS V14.01,2013-02-22 12:15:00,
2013-02-22 07:20:00,14.3,11.1,30.47,NW,315,0.0,0.0,87,0.00,,,0.00,VWS V14.01,2013-02-22 12:20:00,
2013-02-22 07:25:00,14.2,11.1,30.47,NW,315,0.0,0.0,87,0.00,,,0.00,VWS V14.01,2013-02-22 12:25:00,
2013-02-22 07:30:00,14.1,10.9,30.47,NW,315,0.0,0.0,87,0.00,,,0.00,VWS V14.01,2013-02-22 12:30:00,
2013-02-22 07:35:00,14.1,11.2,30.47,NW,315,0.0,2.0,88,0.00,,,0.00,VWS V14.01,2013-02-22 12:35:00,
2013-02-22 07:40:00,14.2,11.3,30.47,NW,315,0.0,2.0,88,0.00,,,0.00,VWS V14.01,2013-02-22 12:40:00,
2013-02-22 07:45:00,14.3,11.4,30.47,NW,315,1.0,2.0,88,0.00,,,0.00,VWS V14.01,2013-02-22 12:45:00,
2013-02-22 07:50:00,14.4,11.5,30.47,NW,315,0.0,2.0,88,0.00,,,0.00,VWS V14.01,2013-02-22 12:50:00,
2013-02-22 07:55:00,14.4,11.5,30.47,NW,315,0.0,2.0,88,0.00,,,0.00,VWS V14.01,2013-02-22 12:55:00,
2013-02-22 08:00:00,14.6,11.7,30.47,NW,315,0.0,0.0,88,0.00,,,0.00,VWS V14.01,2013-02-22 13:00:00,
2013-02-22 08:05:00,14.9,12.0,30.47,NW,315,0.0,0.0,88,0.00,,,0.00,VWS V14.01,2013-02-22 13:05:00,
2013-02-22 08:10:00,15.2,12.6,30.47,NW,315,0.0,0.0,89,0.00,,,0.00,VWS V14.01,2013-02-22 13:10:00,
2013-02-22 08:15:00,15.5,12.8,30.48,NW,315,0.0,2.0,89,0.00,,,0.00,VWS V14.01,2013-02-22 13:15:00,
2013-02-22 08:20:00,15.8,13.1,30.48,NW,315,0.0,0.0,89,0.00,,,0.00,VWS V14.01,2013-02-22 13:20:00,
2013-02-22 08:25:00,16.0,13.3,30.47,NW,315,0.0,0.0,89,0.00,,,0.00,VWS V14.01,2013-02-22 13:25:00,
2013-02-22 08:30:00,16.4,13.7,30.47,NW,315,0.0,0.0,89,0.00,,,0.00,VWS V14.01,2013-02-22 13:30:00,
2013-02-22 08:35:00,16.9,14.2,30.47,NW,315,0.0,0.0,89,0.00,,,0.00,VWS V14.01,2013-02-22 13:35:00,
2013-02-22 08:40:00,17.3,14.6,30.47,NW,315,0.0,0.0,89,0.00,,,0.00,VWS V14.01,2013-02-22 13:40:00,
2013-02-22 08:45:00,18.1,15.7,30.47,NW,315,0.0,0.0,90,0.00,,,0.00,VWS V14.01,2013-02-22 13:45:00,
2013-02-22 08:50:00,19.3,16.9,30.47,NW,315,0.0,1.0,90,0.00,,,0.00,VWS V14.01,2013-02-22 13:50:00,
2013-02-22 08:55:00,20.3,17.3,30.47,NW,315,0.0,2.0,88,0.00,,,0.00,VWS V14.01,2013-02-22 13:55:00,
2013-02-22 09:00:00,20.9,17.9,30.47,NW,315,0.0,0.0,88,0.00,,,0.00,VWS V14.01,2013-02-22 14:00:00,
2013-02-22 09:05:00,22.1,19.1,30.47,NW,315,0.0,0.0,88,0.00,,,0.00,VWS V14.01,2013-02-22 14:05:00,
2013-02-22 09:10:00,23.0,19.5,30.47,NW,315,0.0,0.0,86,0.00,,,0.00,VWS V14.01,2013-02-22 14:10:00,
2013-02-22 09:15:00,23.7,19.9,30.47,NW,315,0.0,1.0,85,0.00,,,0.00,VWS V14.01,2013-02-22 14:15:00,
2013-02-22 09:20:00,24.9,20.5,30.47,NW,315,0.0,0.0,83,0.00,,,0.00,VWS V14.01,2013-02-22 14:20:00,
2013-02-22 09:25:00,25.3,20.3,30.47,NW,315,0.0,0.0,81,0.00,,,0.00,VWS V14.01,2013-02-22 14:25:00,
2013-02-22 09:30:00,25.5,20.5,30.47,NW,315,0.0,2.0,81,0.00,,,0.00,VWS V14.01,2013-02-22 14:30:00,
2013-02-22 09:35:00,26.1,20.8,30.46,NW,315,0.0,0.0,80,0.00,,,0.00,VWS V14.01,2013-02-22 14:35:00,
2013-02-22 09:40:00,26.8,20.9,30.47,NW,315,0.0,2.0,78,0.00,,,0.00,VWS V14.01,2013-02-22 14:40:00,
2013-02-22 09:45:00,26.9,21.0,30.47,ENE,68,1.0,4.0,78,0.00,,,0.00,VWS V14.01,2013-02-22 14:45:00,
2013-02-22 09:50:00,27.2,20.6,30.47,ENE,68,3.0,6.0,76,0.00,,,0.00,VWS V14.01,2013-02-22 14:50:00,
2013-02-22 09:55:00,27.2,20.6,30.46,SE,135,2.0,4.0,76,0.00,,,0.00,VWS V14.01,2013-02-22 14:55:00,
2013-02-22 10:00:00,27.8,20.6,30.46,SE,135,1.0,3.0,74,0.00,,,0.00,VWS V14.01,2013-02-22 15:00:00,
2013-02-22 10:05:00,27.4,20.2,30.45,SE,135,0.0,3.0,74,0.00,,,0.00,VWS V14.01,2013-02-22 15:05:00,
2013-02-22 10:10:00,26.8,20.0,30.45,SE,135,2.0,3.0,75,0.00,,,0.00,VWS V14.01,2013-02-22 15:10:00,
2013-02-22 10:15:00,26.8,20.3,30.45,SE,135,1.0,3.0,76,0.00,,,0.00,VWS V14.01,2013-02-22 15:15:00,
2013-02-22 10:20:00,27.4,20.5,30.45,SE,135,1.0,4.0,75,0.00,,,0.00,VWS V14.01,2013-02-22 15:20:00,
2013-02-22 10:25:00,28.0,20.5,30.44,SE,135,3.0,4.0,73,0.00,,,0.00,VWS V14.01,2013-02-22 15:25:00,
2013-02-22 10:30:00,27.8,20.6,30.44,East,90,2.0,4.0,74,0.00,,,0.00,VWS V14.01,2013-02-22 15:30:00,
2013-02-22 10:35:00,27.6,20.4,30.44,East,90,3.0,5.0,74,0.00,,,0.00,VWS V14.01,2013-02-22 15:35:00,
2013-02-22 10:40:00,27.5,20.3,30.44,ESE,112,2.0,4.0,74,0.00,,,0.00,VWS V14.01,2013-02-22 15:40:00,
2013-02-22 10:45:00,27.6,20.7,30.44,ESE,112,1.0,3.0,75,0.00,,,0.00,VWS V14.01,2013-02-22 15:45:00,
2013-02-22 10:50:00,27.9,20.7,30.44,ESE,112,3.0,4.0,74,0.00,,,0.00,VWS V14.01,2013-02-22 15:50:00,
2013-02-22 10:55:00,28.3,21.1,30.43,SE,135,1.0,3.0,74,0.00,,,0.00,VWS V14.01,2013-02-22 15:55:00,
2013-02-22 11:00:00,28.6,21.1,30.43,ESE,112,2.0,5.0,73,0.00,,,0.00,VWS V14.01,2013-02-22 16:00:00,
2013-02-22 11:05:00,28.6,21.1,30.43,ESE,112,1.0,4.0,73,0.00,,,0.00,VWS V14.01,2013-02-22 16:05:00,
2013-02-22 11:10:00,29.3,21.7,30.43,ENE,68,0.0,1.0,73,0.00,,,0.00,VWS V14.01,2013-02-22 16:10:00,
2013-02-22 11:15:00,30.2,21.9,30.43,ENE,68,0.0,3.0,71,0.00,,,0.00,VWS V14.01,2013-02-22 16:15:00,
2013-02-22 11:20:00,30.6,22.0,30.43,East,90,0.0,4.0,70,0.00,,,0.00,VWS V14.01,2013-02-22 16:20:00,
2013-02-22 11:25:00,31.2,22.2,30.43,WSW,248,2.0,6.0,69,0.00,,,0.00,VWS V14.01,2013-02-22 16:25:00,
2013-02-22 11:30:00,31.7,22.0,30.43,WSW,248,0.0,2.0,67,0.00,,,0.00,VWS V14.01,2013-02-22 16:30:00,
2013-02-22 11:35:00,31.9,22.5,30.42,South,180,1.0,4.0,68,0.00,,,0.00,VWS V14.01,2013-02-22 16:35:00,
2013-02-22 11:40:00,32.2,22.8,30.43,SSW,202,1.0,5.0,68,0.00,,,0.00,VWS V14.01,2013-02-22 16:40:00,
2013-02-22 11:45:00,32.9,22.4,30.43,SW,225,3.0,8.0,65,0.00,,,0.00,VWS V14.01,2013-02-22 16:45:00,
2013-02-22 11:50:00,32.6,22.5,30.43,WSW,248,2.0,5.0,66,0.00,,,0.00,VWS V14.01,2013-02-22 16:50:00,
2013-02-22 11:55:00,32.7,22.6,30.42,WNW,292,1.0,4.0,66,0.00,,,0.00,VWS V14.01,2013-02-22 16:55:00,
2013-02-22 12:00:00,32.6,22.5,30.43,WNW,292,2.0,7.0,66,0.00,,,0.00,VWS V14.01,2013-02-22 17:00:00,
2013-02-22 12:05:00,32.4,23.0,30.42,East,90,3.0,7.0,68,0.00,,,0.00,VWS V14.01,2013-02-22 17:05:00,
2013-02-22 12:10:00,32.6,22.9,30.42,East,90,3.0,7.0,67,0.00,,,0.00,VWS V14.01,2013-02-22 17:10:00,
2013-02-22 12:15:00,32.7,22.6,30.42,East,90,3.0,6.0,66,0.00,,,0.00,VWS V14.01,2013-02-22 17:15:00,
2013-02-22 12:20:00,32.3,22.9,30.42,East,90,4.0,9.0,68,0.00,,,0.00,VWS V14.01,2013-02-22 17:20:00,
2013-02-22 12:25:00,31.8,23.1,30.42,SSE,158,0.0,3.0,70,0.00,,,0.00,VWS V14.01,2013-02-22 17:25:00,
2013-02-22 12:30:00,32.5,23.1,30.41,SSW,202,1.0,5.0,68,0.00,,,0.00,VWS V14.01,2013-02-22 17:30:00,
2013-02-22 12:35:00,33.3,23.2,30.41,East,90,1.0,5.0,66,0.00,,,0.00,VWS V14.01,2013-02-22 17:35:00,
2013-02-22 12:40:00,33.5,23.4,30.41,ESE,112,1.0,3.0,66,0.00,,,0.00,VWS V14.01,2013-02-22 17:40:00,
2013-02-22 12:45:00,33.5,23.0,30.40,SW,225,1.0,4.0,65,0.00,,,0.00,VWS V14.01,2013-02-22 17:45:00,
2013-02-22 12:50:00,33.4,23.3,30.40,SSE,158,1.0,3.0,66,0.00,,,0.00,VWS V14.01,2013-02-22 17:50:00,
2013-02-22 12:55:00,33.2,22.7,30.40,SSE,158,1.0,4.0,65,0.00,,,0.00,VWS V14.01,2013-02-22 17:55:00,
2013-02-22 13:00:00,32.9,22.8,30.39,SE,135,1.0,4.0,66,0.00,,,0.00,VWS V14.01,2013-02-22 18:00:00,
2013-02-22 13:05:00,32.7,23.0,30.39,West,270,1.0,4.0,67,0.00,,,0.00,VWS V14.01,2013-02-22 18:05:00,
2013-02-22 13:10:00,32.7,23.0,30.39,ESE,112,1.0,3.0,67,0.00,,,0.00,VWS V14.01,2013-02-22 18:10:00,
2013-02-22 13:15:00,32.5,23.1,30.38,ESE,112,1.0,3.0,68,0.00,,,0.00,VWS V14.01,2013-02-22 18:15:00,
2013-02-22 13:20:00,32.4,23.0,30.38,East,90,2.0,4.0,68,0.00,,,0.00,VWS V14.01,2013-02-22 18:20:00,
2013-02-22 13:25:00,32.3,22.9,30.38,East,90,1.0,2.0,68,0.00,,,0.00,VWS V14.01,2013-02-22 18:25:00,
2013-02-22 13:30:00,32.4,23.0,30.37,East,90,1.0,4.0,68,0.00,,,0.00,VWS V14.01,2013-02-22 18:30:00,
2013-02-22 13:35:00,32.6,23.2,30.37,NE,45,2.0,4.0,68,0.00,,,0.00,VWS V14.01,2013-02-22 18:35:00,
2013-02-22 13:40:00,32.7,23.0,30.37,SSW,202,1.0,6.0,67,0.00,,,0.00,VWS V14.01,2013-02-22 18:40:00,
2013-02-22 13:45:00,32.9,22.8,30.37,SW,225,2.0,5.0,66,0.00,,,0.00,VWS V14.01,2013-02-22 18:45:00,
2013-02-22 13:50:00,32.8,22.7,30.37,East,90,2.0,7.0,66,0.00,,,0.00,VWS V14.01,2013-02-22 18:50:00,
2013-02-22 13:55:00,32.7,23.0,30.37,East,90,2.0,5.0,67,0.00,,,0.00,VWS V14.01,2013-02-22 18:55:00,
2013-02-22 14:00:00,32.8,23.1,30.36,SW,225,2.0,5.0,67,0.00,,,0.00,VWS V14.01,2013-02-22 19:00:00,
2013-02-22 14:05:00,33.0,23.2,30.36,WSW,248,2.0,5.0,67,0.00,,,0.00,VWS V14.01,2013-02-22 19:05:00,
2013-02-22 14:10:00,33.0,23.2,30.37,SW,225,1.0,4.0,67,0.00,,,0.00,VWS V14.01,2013-02-22 19:10:00,
2013-02-22 14:15:00,33.0,23.2,30.36,SW,225,0.0,1.0,67,0.00,,,0.00,VWS V14.01,2013-02-22 19:15:00,
2013-02-22 14:20:00,32.9,23.2,30.36,SE,135,1.0,4.0,67,0.00,,,0.00,VWS V14.01,2013-02-22 19:20:00,
2013-02-22 14:25:00,33.0,22.9,30.36,SW,225,1.0,3.0,66,0.00,,,0.00,VWS V14.01,2013-02-22 19:25:00,
2013-02-22 14:30:00,33.1,23.0,30.36,SE,135,1.0,4.0,66,0.00,,,0.00,VWS V14.01,2013-02-22 19:30:00,
2013-02-22 14:35:00,33.1,23.0,30.37,SE,135,0.0,2.0,66,0.00,,,0.00,VWS V14.01,2013-02-22 19:35:00,
2013-02-22 14:40:00,33.2,23.5,30.37,SW,225,1.0,5.0,67,0.00,,,0.00,VWS V14.01,2013-02-22 19:40:00,
2013-02-22 14:45:00,33.5,23.4,30.37,SW,225,1.0,4.0,66,0.00,,,0.00,VWS V14.01,2013-02-22 19:45:00,
2013-02-22 14:50:00,33.7,23.6,30.36,SW,225,2.0,4.0,66,0.00,,,0.00,VWS V14.01,2013-02-22 19:50:00,
2013-02-22 14:55:00,33.9,23.4,30.37,SW,225,1.0,3.0,65,0.00,,,0.00,VWS V14.01,2013-02-22 19:55:00,
2013-02-22 15:00:00,34.0,23.5,30.37,SW,225,1.0,4.0,65,0.00,,,0.00,VWS V14.01,2013-02-22 20:00:00,
2013-02-22 15:05:00,33.9,23.0,30.36,SW,225,1.0,3.0,64,0.00,,,0.00,VWS V14.01,2013-02-22 20:05:00,
2013-02-22 15:10:00,33.6,23.1,30.36,SW,225,0.0,3.0,65,0.00,,,0.00,VWS V14.01,2013-02-22 20:10:00,
2013-02-22 15:15:00,33.5,23.4,30.35,SW,225,0.0,3.0,66,0.00,,,0.00,VWS V14.01,2013-02-22 20:15:00,
2013-02-22 15:20:00,33.9,23.8,30.35,SW,225,0.0,2.0,66,0.00,,,0.00,VWS V14.01,2013-02-22 20:20:00,
2013-02-22 15:25:00,34.1,23.6,30.34,SW,225,0.0,1.0,65,0.00,,,0.00,VWS V14.01,2013-02-22 20:25:00,
2013-02-22 15:30:00,33.9,23.4,30.34,SW,225,1.0,3.0,65,0.00,,,0.00,VWS V14.01,2013-02-22 20:30:00,
2013-02-22 15:35:00,33.4,23.3,30.34,SW,225,1.0,4.0,66,0.00,,,0.00,VWS V14.01,2013-02-22 20:35:00,
2013-02-22 15:40:00,33.1,23.0,30.34,WNW,292,1.0,5.0,66,0.00,,,0.00,VWS V14.01,2013-02-22 20:40:00,
2013-02-22 15:45:00,32.9,23.2,30.33,WSW,248,1.0,4.0,67,0.00,,,0.00,VWS V14.01,2013-02-22 20:45:00,
2013-02-22 15:50:00,32.9,23.5,30.33,WSW,248,1.0,5.0,68,0.00,,,0.00,VWS V14.01,2013-02-22 20:50:00,
2013-02-22 15:55:00,32.9,23.2,30.33,SW,225,2.0,4.0,67,0.00,,,0.00,VWS V14.01,2013-02-22 20:55:00,
2013-02-22 16:00:00,32.8,23.1,30.32,SW,225,1.0,4.0,67,0.00,,,0.00,VWS V14.01,2013-02-22 21:00:00,
2013-02-22 16:05:00,32.9,23.5,30.32,SW,225,1.0,5.0,68,0.00,,,0.00,VWS V14.01,2013-02-22 21:05:00,
2013-02-22 16:10:00,33.5,24.1,30.33,SW,225,1.0,3.0,68,0.00,,,0.00,VWS V14.01,2013-02-22 21:10:00,
2013-02-22 16:15:00,33.9,23.8,30.33,SE,135,0.0,2.0,66,0.00,,,0.00,VWS V14.01,2013-02-22 21:15:00,
2013-02-22 16:20:00,33.9,23.8,30.33,SE,135,1.0,3.0,66,0.00,,,0.00,VWS V14.01,2013-02-22 21:20:00,
2013-02-22 16:25:00,33.6,23.5,30.32,South,180,0.0,3.0,66,0.00,,,0.00,VWS V14.01,2013-02-22 21:25:00,
2013-02-22 16:30:00,33.3,23.2,30.32,South,180,0.0,0.0,66,0.00,,,0.00,VWS V14.01,2013-02-22 21:30:00,
2013-02-22 16:35:00,32.9,23.2,30.32,South,180,0.0,0.0,67,0.00,,,0.00,VWS V14.01,2013-02-22 21:35:00,
2013-02-22 16:40:00,32.5,23.1,30.32,South,180,0.0,0.0,68,0.00,,,0.00,VWS V14.01,2013-02-22 21:40:00,
2013-02-22 16:45:00,32.0,23.3,30.31,South,180,1.0,2.0,70,0.00,,,0.00,VWS V14.01,2013-02-22 21:45:00,
2013-02-22 16:50:00,31.6,23.3,30.31,South,180,0.0,1.0,71,0.00,,,0.00,VWS V14.01,2013-02-22 21:50:00,
2013-02-22 16:55:00,31.4,23.1,30.32,South,180,0.0,1.0,71,0.00,,,0.00,VWS V14.01,2013-02-22 21:55:00,
2013-02-22 17:00:00,31.3,23.0,30.31,South,180,0.0,0.0,71,0.00,,,0.00,VWS V14.01,2013-02-22 22:00:00,
2013-02-22 17:05:00,31.2,23.6,30.31,South,180,0.0,2.0,73,0.00,,,0.00,VWS V14.01,2013-02-22 22:05:00,
2013-02-22 17:10:00,31.2,23.2,30.31,SSW,202,0.0,2.0,72,0.00,,,0.00,VWS V14.01,2013-02-22 22:10:00,
2013-02-22 17:15:00,31.1,23.1,30.31,SSW,202,0.0,0.0,72,0.00,,,0.00,VWS V14.01,2013-02-22 22:15:00,
2013-02-22 17:20:00,31.1,23.5,30.32,SSW,202,0.0,0.0,73,0.00,,,0.00,VWS V14.01,2013-02-22 22:20:00,
2013-02-22 17:25:00,30.9,23.3,30.32,SSW,202,0.0,0.0,73,0.00,,,0.00,VWS V14.01,2013-02-22 22:25:00,
2013-02-22 17:30:00,30.7,23.4,30.32,SSW,202,0.0,0.0,74,0.00,,,0.00,VWS V14.01,2013-02-22 22:30:00,
2013-02-22 17:35:00,30.5,23.5,30.32,SSW,202,0.0,0.0,75,0.00,,,0.00,VWS V14.01,2013-02-22 22:35:00,
2013-02-22 17:40:00,30.3,23.7,30.33,SSW,202,0.0,0.0,76,0.00,,,0.00,VWS V14.01,2013-02-22 22:40:00,
2013-02-22 17:45:00,30.0,23.7,30.33,SSW,202,0.0,0.0,77,0.00,,,0.00,VWS V14.01,2013-02-22 22:45:00,
2013-02-22 17:50:00,29.6,23.3,30.33,SSW,202,0.0,0.0,77,0.00,,,0.00,VWS V14.01,2013-02-22 22:50:00,
2013-02-22 17:55:00,29.5,23.5,30.33,SSW,202,0.0,0.0,78,0.00,,,0.00,VWS V14.01,2013-02-22 22:55:00,
2013-02-22 18:00:00,29.5,23.8,30.33,SSW,202,0.0,2.0,79,0.00,,,0.00,VWS V14.01,2013-02-22 23:00:00,
2013-02-22 18:05:00,29.5,23.8,30.33,SSW,202,0.0,0.0,79,0.00,,,0.00,VWS V14.01,2013-02-22 23:05:00,
2013-02-22 18:10:00,29.5,23.8,30.35,SSW,202,0.0,0.0,79,0.00,,,0.00,VWS V14.01,2013-02-22 23:10:00,
2013-02-22 18:15:00,28.9,24.1,30.31,West,281,0.0,0.0,82,0.00,,,0.00,VWS V14.01,2013-02-22 23:15:00,
2013-02-22 18:20:00,28.9,24.4,30.30,West,281,0.0,0.0,83,0.00,,,0.00,VWS V14.01,2013-02-22 23:20:00,
2013-02-22 18:24:00,29.5,23.8,30.35,SSW,202,0.0,0.0,79,0.00,,,0.00,VWS V14.01,2013-02-22 23:24:00,
2013-02-22 18:25:00,29.1,23.4,30.32,West,281,1.0,3.0,79,0.00,,,0.00,VWS V14.01,2013-02-22 23:25:00,
2013-02-22 18:29:00,29.2,23.5,30.32,West,281,0.0,2.0,79,0.00,,,0.00,VWS V14.01,2013-02-22 23:29:00,
2013-02-22 18:30:00,29.2,23.5,30.32,West,281,0.0,2.0,79,0.00,,,0.00,VWS V14.01,2013-02-22 23:30:00,
2013-02-22 18:34:00,29.3,23.6,30.32,West,281,0.0,0.0,79,0.00,,,0.00,VWS V14.01,2013-02-22 23:34:00,
2013-02-22 18:35:00,29.3,23.6,30.32,West,281,0.0,0.0,79,0.00,,,0.00,VWS V14.01,2013-02-22 23:35:00,
2013-02-22 18:39:00,29.1,23.7,30.32,West,280,0.0,2.0,80,0.00,,,0.00,VWS V14.01,2013-02-22 23:39:00,
2013-02-22 18:40:00,29.1,23.7,30.32,West,280,0.0,2.0,80,0.00,,,0.00,VWS V14.01,2013-02-22 23:40:00,
2013-02-22 18:44:00,29.0,23.6,30.31,West,281,0.0,0.0,80,0.00,,,0.00,VWS V14.01,2013-02-22 23:44:00,
2013-02-22 18:45:00,29.0,23.6,30.31,West,281,2.0,2.0,80,0.00,,,0.00,VWS V14.01,2013-02-22 23:45:00,
2013-02-22 18:49:00,28.9,23.8,30.32,West,280,0.0,2.0,81,0.00,,,0.00,VWS V14.01,2013-02-22 23:49:00,
2013-02-22 18:50:00,28.9,23.8,30.32,West,281,2.0,2.0,81,0.00,,,0.00,VWS V14.01,2013-02-22 23:50:00,
2013-02-22 18:54:00,29.0,24.2,30.33,West,280,0.0,0.0,82,0.00,,,0.00,VWS V14.01,2013-02-22 23:54:00,
2013-02-22 18:55:00,29.0,24.2,30.33,West,280,0.0,0.0,82,0.00,,,0.00,VWS V14.01,2013-02-22 23:55:00,
2013-02-22 18:59:00,29.1,24.3,30.32,West,280,2.0,2.0,82,0.00,,,0.00,VWS V14.01,2013-02-22 23:59:00,
2013-02-22 19:00:00,29.1,24.3,30.32,West,280,2.0,2.0,82,0.00,,,0.00,VWS V14.01,2013-02-23 00:00:00,
2013-02-22 19:01:00,29.1,24.3,30.32,West,281,2.0,3.0,82,0.00,,,0.00,VWS V14.01,2013-02-23 00:01:00,
2013-02-22 19:05:00,29.0,24.2,30.32,West,281,0.0,2.0,82,0.00,,,0.00,VWS V14.01,2013-02-23 00:05:00,
2013-02-22 19:06:00,29.0,24.2,30.32,West,280,0.0,2.0,82,0.00,,,0.00,VWS V14.01,2013-02-23 00:06:00,
2013-02-22 19:10:00,29.0,24.2,30.31,West,281,0.0,0.0,82,0.00,,,0.00,VWS V14.01,2013-02-23 00:10:00,
2013-02-22 19:11:00,29.0,24.2,30.31,West,280,0.0,0.0,82,0.00,,,0.00,VWS V14.01,2013-02-23 00:11:00,
2013-02-22 19:15:00,28.9,24.1,30.31,West,281,0.0,0.0,82,0.00,,,0.00,VWS V14.01,2013-02-23 00:15:00,
2013-02-22 19:16:00,28.9,24.1,30.31,West,280,0.0,0.0,82,0.00,,,0.00,VWS V14.01,2013-02-23 00:16:00,
2013-02-22 19:20:00,28.9,24.4,30.30,West,281,0.0,0.0,83,0.00,,,0.00,VWS V14.01,2013-02-23 00:20:00,
2013-02-22 19:21:00,28.9,24.4,30.30,West,281,0.0,0.0,83,0.00,,,0.00,VWS V14.01,2013-02-23 00:21:00,
2013-02-22 19:25:00,29.0,24.5,30.30,West,280,0.0,0.0,83,0.00,,,0.00,VWS V14.01,2013-02-23 00:25:00,
2013-02-22 19:26:00,29.0,24.5,30.30,West,281,0.0,0.0,83,0.00,,,0.00,VWS V14.01,2013-02-23 00:26:00,
2013-02-22 19:30:00,29.0,24.5,30.31,West,281,0.0,0.0,83,0.00,,,0.00,VWS V14.01,2013-02-23 00:30:00,
2013-02-22 19:31:00,29.0,24.5,30.31,West,280,0.0,0.0,83,0.00,,,0.00,VWS V14.01,2013-02-23 00:31:00,
2013-02-22 19:32:00,29.0,24.5,30.31,West,281,0.0,0.0,83,0.00,,,0.00,VWS V14.01,2013-02-23 00:32:00,
2013-02-22 19:35:00,29.0,24.5,30.31,West,281,2.0,2.0,83,0.00,,,0.00,VWS V14.01,2013-02-23 00:35:00,
2013-02-22 19:36:00,29.0,24.5,30.31,West,281,1.0,2.0,83,0.00,,,0.00,VWS V14.01,2013-02-23 00:36:00,
2013-02-22 19:37:00,28.9,24.4,30.31,West,281,1.0,2.0,83,0.00,,,0.00,VWS V14.01,2013-02-23 00:37:00,
2013-02-22 19:40:00,28.9,24.4,30.31,West,281,0.0,2.0,83,0.00,,,0.00,VWS V14.01,2013-02-23 00:40:00,
2013-02-22 19:41:00,29.0,24.5,30.31,West,280,0.0,0.0,83,0.00,,,0.00,VWS V14.01,2013-02-23 00:41:00,
2013-02-22 19:42:00,29.0,24.5,30.31,West,281,0.0,0.0,83,0.00,,,0.00,VWS V14.01,2013-02-23 00:42:00,
2013-02-22 19:45:00,29.0,24.5,30.31,West,281,0.0,0.0,83,0.00,,,0.00,VWS V14.01,2013-02-23 00:45:00,
2013-02-22 19:47:00,29.0,24.5,30.31,West,280,0.0,0.0,83,0.00,,,0.00,VWS V14.01,2013-02-23 00:47:00,
2013-02-22 19:50:00,28.9,24.4,30.31,West,280,0.0,0.0,83,0.00,,,0.00,VWS V14.01,2013-02-23 00:50:00,
2013-02-22 19:52:00,28.9,24.4,30.31,West,281,0.0,0.0,83,0.00,,,0.00,VWS V14.01,2013-02-23 00:52:00,
2013-02-22 19:55:00,28.8,24.3,30.31,West,280,0.0,0.0,83,0.00,,,0.00,VWS V14.01,2013-02-23 00:55:00,
2013-02-22 19:57:00,28.8,24.3,30.31,West,280,0.0,0.0,83,0.00,,,0.00,VWS V14.01,2013-02-23 00:57:00,
2013-02-22 20:00:00,28.8,24.3,30.30,West,281,0.0,0.0,83,0.00,,,0.00,VWS V14.01,2013-02-23 01:00:00,
2013-02-22 20:01:00,28.8,24.3,30.30,West,281,0.0,0.0,83,0.00,,,0.00,VWS V14.01,2013-02-23 01:01:00,
2013-02-22 20:02:00,28.9,24.4,30.31,West,281,0.0,0.0,83,0.00,,,0.00,VWS V14.01,2013-02-23 01:02:00,
2013-02-22 20:05:00,28.9,24.4,30.31,West,280,0.0,0.0,83,0.00,,,0.00,VWS V14.01,2013-02-23 01:05:00,
2013-02-22 20:06:00,28.9,24.4,30.30,West,281,0.0,0.0,83,0.00,,,0.00,VWS V14.01,2013-02-23 01:06:00,
2013-02-22 20:07:00,28.9,24.4,30.30,West,280,0.0,0.0,83,0.00,,,0.00,VWS V14.01,2013-02-23 01:07:00,
2013-02-22 20:10:00,28.9,24.4,30.30,West,281,0.0,0.0,83,0.00,,,0.00,VWS V14.01,2013-02-23 01:10:00,
2013-02-22 20:11:00,29.0,24.5,30.30,West,281,0.0,0.0,83,0.00,,,0.00,VWS V14.01,2013-02-23 01:11:00,
2013-02-22 20:12:00,29.0,24.5,30.30,West,281,0.0,0.0,83,0.00,,,0.00,VWS V14.01,2013-02-23 01:12:00,
2013-02-22 20:15:00,29.0,24.5,30.30,West,281,0.0,0.0,83,0.00,,,0.00,VWS V14.01,2013-02-23 01:15:00,
2013-02-22 20:16:00,29.0,24.8,30.30,West,281,0.0,0.0,84,0.00,,,0.00,VWS V14.01,2013-02-23 01:16:00,
2013-02-22 20:17:00,29.0,24.8,30.30,West,281,0.0,0.0,84,0.00,,,0.00,VWS V14.01,2013-02-23 01:17:00,
2013-02-22 20:20:00,29.0,24.8,30.30,West,281,0.0,0.0,84,0.00,,,0.00,VWS V14.01,2013-02-23 01:20:00,
2013-02-22 20:21:00,29.0,24.8,30.30,West,280,0.0,0.0,84,0.00,,,0.00,VWS V14.01,2013-02-23 01:21:00,
2013-02-22 20:22:00,29.0,24.8,30.30,West,281,0.0,0.0,84,0.00,,,0.00,VWS V14.01,2013-02-23 01:22:00,
2013-02-22 20:25:00,29.0,24.5,30.30,West,280,0.0,0.0,83,0.00,,,0.00,VWS V14.01,2013-02-23 01:25:00,
2013-02-22 20:26:00,29.0,24.5,30.29,West,281,0.0,0.0,83,0.00,,,0.00,VWS V14.01,2013-02-23 01:26:00,
2013-02-22 20:27:00,29.1,24.6,30.30,West,281,0.0,0.0,83,0.00,,,0.00,VWS V14.01,2013-02-23 01:27:00,
2013-02-22 20:28:00,29.1,24.6,30.30,West,280,0.0,0.0,83,0.00,,,0.00,VWS V14.01,2013-02-23 01:28:00,
2013-02-22 20:30:00,29.1,24.6,30.30,West,281,0.0,0.0,83,0.00,,,0.00,VWS V14.01,2013-02-23 01:30:00,
2013-02-22 20:31:00,29.1,24.6,30.30,West,280,0.0,0.0,83,0.00,,,0.00,VWS V14.01,2013-02-23 01:31:00,
2013-02-22 20:32:00,29.1,24.6,30.30,West,281,0.0,0.0,83,0.00,,,0.00,VWS V14.01,2013-02-23 01:32:00,
2013-02-22 20:33:00,29.1,24.6,30.30,West,281,0.0,0.0,83,0.00,,,0.00,VWS V14.01,2013-02-23 01:33:00,
2013-02-22 20:35:00,29.2,24.7,30.30,West,281,1.0,1.0,83,0.00,,,0.00,VWS V14.01,2013-02-23 01:35:00,
2013-02-22 20:36:00,29.2,24.7,30.30,West,281,1.0,1.0,83,0.00,,,0.00,VWS V14.01,2013-02-23 01:36:00,
2013-02-22 20:38:00,29.1,24.6,30.30,West,281,0.0,1.0,83,0.00,,,0.00,VWS V14.01,2013-02-23 01:38:00,
2013-02-22 20:40:00,29.1,24.3,30.29,WNW,295,2.0,4.0,82,0.00,,,0.00,VWS V14.01,2013-02-23 01:40:00,
2013-02-22 20:41:00,29.1,24.3,30.29,WNW,295,2.0,4.0,82,0.00,,,0.00,VWS V14.01,2013-02-23 01:41:00,
2013-02-22 20:43:00,29.2,24.4,30.29,WNW,296,1.0,4.0,82,0.00,,,0.00,VWS V14.01,2013-02-23 01:43:00,
2013-02-22 20:45:00,29.3,24.2,30.29,WNW,296,0.0,4.0,81,0.00,,,0.00,VWS V14.01,2013-02-23 01:45:00,
2013-02-22 20:46:00,29.3,24.2,30.29,WNW,296,0.0,0.0,81,0.00,,,0.00,VWS V14.01,2013-02-23 01:46:00,
2013-02-22 20:48:00,29.3,24.2,30.29,WNW,296,0.0,0.0,81,0.00,,,0.00,VWS V14.01,2013-02-23 01:48:00,
2013-02-22 20:50:00,29.3,24.5,30.29,WNW,296,1.0,1.0,82,0.00,,,0.00,VWS V14.01,2013-02-23 01:50:00,
2013-02-22 20:51:00,29.3,24.5,30.29,WNW,296,1.0,1.0,82,0.00,,,0.00,VWS V14.01,2013-02-23 01:51:00,
2013-02-22 20:53:00,29.3,24.5,30.29,WNW,295,4.0,4.0,82,0.00,,,0.00,VWS V14.01,2013-02-23 01:53:00,
2013-02-22 20:54:00,29.3,24.5,30.29,NW,315,2.0,4.0,82,0.00,,,0.00,VWS V14.01,2013-02-23 01:54:00,
2013-02-22 20:55:00,29.3,24.5,30.29,NW,314,0.0,4.0,82,0.00,,,0.00,VWS V14.01,2013-02-23 01:55:00,
2013-02-22 20:56:00,29.3,24.5,30.29,NW,315,0.0,0.0,82,0.00,,,0.00,VWS V14.01,2013-02-23 01:56:00,
2013-02-22 20:58:00,29.3,24.2,30.29,WNW,300,1.0,5.0,81,0.00,,,0.00,VWS V14.01,2013-02-23 01:58:00,
2013-02-22 20:59:00,29.3,24.2,30.29,WNW,300,2.0,5.0,81,0.00,,,0.00,VWS V14.01,2013-02-23 01:59:00,
2013-02-22 21:00:00,29.3,24.2,30.29,NW,315,3.0,5.0,81,0.00,,,0.00,VWS V14.01,2013-02-23 02:00:00,
2013-02-22 21:01:00,29.3,24.2,30.29,NW,315,1.0,3.0,81,0.00,,,0.00,VWS V14.01,2013-02-23 02:01:00,
2013-02-22 21:04:00,29.3,24.2,30.29,NW,315,0.0,3.0,81,0.00,,,0.00,VWS V14.01,2013-02-23 02:04:00,
2013-02-22 21:05:00,29.3,24.2,30.29,NW,315,0.0,3.0,81,0.00,,,0.00,VWS V14.01,2013-02-23 02:05:00,
2013-02-22 21:06:00,29.3,23.9,30.29,NW,315,0.0,0.0,80,0.00,,,0.00,VWS V14.01,2013-02-23 02:06:00,
2013-02-22 21:09:00,29.3,24.2,30.29,NW,315,0.0,0.0,81,0.00,,,0.00,VWS V14.01,2013-02-23 02:09:00,
2013-02-22 21:10:00,29.2,24.1,30.29,NW,315,0.0,0.0,81,0.00,,,0.00,VWS V14.01,2013-02-23 02:10:00,
2013-02-22 21:11:00,29.2,24.1,30.29,NW,315,0.0,0.0,81,0.00,,,0.00,VWS V14.01,2013-02-23 02:11:00,
2013-02-22 21:12:00,29.2,24.1,30.29,NW,315,0.0,0.0,81,0.00,,,0.00,VWS V14.01,2013-02-23 02:12:00,
2013-02-22 21:14:00,29.1,24.0,30.29,NW,315,0.0,0.0,81,0.00,,,0.00,VWS V14.01,2013-02-23 02:14:00,
2013-02-22 21:15:00,29.0,23.9,30.29,NW,315,0.0,1.0,81,0.00,,,0.00,VWS V14.01,2013-02-23 02:15:00,
2013-02-22 21:16:00,28.9,23.8,30.29,NW,315,0.0,0.0,81,0.00,,,0.00,VWS V14.01,2013-02-23 02:16:00,
2013-02-22 21:17:00,28.8,23.7,30.29,NW,315,0.0,0.0,81,0.00,,,0.00,VWS V14.01,2013-02-23 02:17:00,
2013-02-22 21:19:00,28.8,23.7,30.29,NW,315,0.0,0.0,81,0.00,,,0.00,VWS V14.01,2013-02-23 02:19:00,
2013-02-22 21:20:00,28.7,23.6,30.29,NW,315,0.0,0.0,81,0.00,,,0.00,VWS V14.01,2013-02-23 02:20:00,
2013-02-22 21:21:00,28.6,23.5,30.30,NW,315,0.0,0.0,81,0.00,,,0.00,VWS V14.01,2013-02-23 02:21:00,
2013-02-22 21:22:00,28.6,23.5,30.30,NW,315,0.0,0.0,81,0.00,,,0.00,VWS V14.01,2013-02-23 02:22:00,
2013-02-22 21:24:00,28.5,23.4,30.30,NW,315,0.0,0.0,81,0.00,,,0.00,VWS V14.01,2013-02-23 02:24:00,
2013-02-22 21:25:00,28.5,23.4,30.30,NW,315,0.0,0.0,81,0.00,,,0.00,VWS V14.01,2013-02-23 02:25:00,
2013-02-22 21:26:00,28.4,23.3,30.30,NW,315,0.0,0.0,81,0.00,,,0.00,VWS V14.01,2013-02-23 02:26:00,
2013-02-22 21:28:00,28.3,23.2,30.30,NW,315,0.0,0.0,81,0.00,,,0.00,VWS V14.01,2013-02-23 02:28:00,
2013-02-22 21:29:00,28.3,23.2,30.30,NW,315,0.0,0.0,81,0.00,,,0.00,VWS V14.01,2013-02-23 02:29:00,
2013-02-22 21:30:00,28.2,23.1,30.30,NW,315,0.0,0.0,81,0.00,,,0.00,VWS V14.01,2013-02-23 02:30:00,
2013-02-22 21:32:00,28.0,22.9,30.30,NW,315,0.0,0.0,81,0.00,,,0.00,VWS V14.01,2013-02-23 02:32:00,
2013-02-22 21:33:00,28.0,22.9,30.30,NW,315,0.0,0.0,81,0.00,,,0.00,VWS V14.01,2013-02-23 02:33:00,
2013-02-22 21:34:00,27.8,22.7,30.30,NW,315,0.0,0.0,81,0.00,,,0.00,VWS V14.01,2013-02-23 02:34:00,
2013-02-22 21:35:00,27.7,22.6,30.30,NW,315,0.0,0.0,81,0.00,,,0.00,VWS V14.01,2013-02-23 02:35:00,
2013-02-22 21:37:00,27.6,22.5,30.30,NW,315,0.0,0.0,81,0.00,,,0.00,VWS V14.01,2013-02-23 02:37:00,
2013-02-22 21:38:00,27.4,22.4,30.30,NW,315,0.0,0.0,81,0.00,,,0.00,VWS V14.01,2013-02-23 02:38:00,
2013-02-22 21:39:00,27.3,22.2,30.30,NW,315,0.0,0.0,81,0.00,,,0.00,VWS V14.01,2013-02-23 02:39:00,
2013-02-22 21:40:00,27.2,22.1,30.30,NW,315,0.0,0.0,81,0.00,,,0.00,VWS V14.01,2013-02-23 02:40:00,
2013-02-22 21:42:00,27.1,22.1,30.30,NW,315,0.0,0.0,81,0.00,,,0.00,VWS V14.01,2013-02-23 02:42:00,
2013-02-22 21:43:00,27.0,22.0,30.30,NW,315,0.0,0.0,81,0.00,,,0.00,VWS V14.01,2013-02-23 02:43:00,
2013-02-22 21:44:00,26.9,21.9,30.31,NW,315,0.0,0.0,81,0.00,,,0.00,VWS V14.01,2013-02-23 02:44:00,
2013-02-22 21:45:00,26.9,21.9,30.30,NW,315,0.0,0.0,81,0.00,,,0.00,VWS V14.01,2013-02-23 02:45:00,
2013-02-22 21:47:00,26.7,22.0,30.30,NW,315,0.0,0.0,82,0.00,,,0.00,VWS V14.01,2013-02-23 02:47:00,
2013-02-22 21:48:00,26.7,22.0,30.30,NW,315,0.0,0.0,82,0.00,,,0.00,VWS V14.01,2013-02-23 02:48:00,
2013-02-22 21:50:00,26.7,22.0,30.30,NW,315,1.0,4.0,82,0.00,,,0.00,VWS V14.01,2013-02-23 02:50:00,
2013-02-22 21:55:00,26.9,22.1,30.30,NW,315,3.0,7.0,82,0.00,,,0.00,VWS V14.01,2013-02-23 02:55:00,
2013-02-22 22:00:00,27.5,22.5,30.29,WNW,292,4.0,9.0,81,0.00,,,0.00,VWS V14.01,2013-02-23 03:00:00,
2013-02-22 22:05:00,27.9,22.5,30.29,WNW,292,3.0,5.0,80,0.00,,,0.00,VWS V14.01,2013-02-23 03:05:00,
2013-02-22 22:10:00,28.0,22.6,30.29,WNW,292,3.0,5.0,80,0.00,,,0.00,VWS V14.01,2013-02-23 03:10:00,
2013-02-22 22:15:00,28.3,22.9,30.27,NNW,331,0.0,4.0,80,0.00,,,0.00,VWS V14.01,2013-02-23 03:15:00,
2013-02-22 22:20:00,28.4,23.0,30.28,NW,313,2.0,3.0,80,0.00,,,0.00,VWS V14.01,2013-02-23 03:20:00,
2013-02-22 22:21:00,28.0,22.6,30.29,WNW,292,3.0,5.0,80,0.00,,,0.00,VWS V14.01,2013-02-23 03:21:00,
2013-02-22 22:25:00,28.6,23.2,30.28,NNW,342,0.0,4.0,80,0.00,,,0.00,VWS V14.01,2013-02-23 03:25:00,
2013-02-22 22:26:00,28.6,23.2,30.28,NNW,342,2.0,4.0,80,0.00,,,0.00,VWS V14.01,2013-02-23 03:26:00,
2013-02-22 22:30:00,28.8,23.1,30.28,NNW,330,0.0,4.0,79,0.00,,,0.00,VWS V14.01,2013-02-23 03:30:00,
2013-02-22 22:31:00,28.8,23.1,30.28,NNW,330,0.0,4.0,79,0.00,,,0.00,VWS V14.01,2013-02-23 03:31:00,
2013-02-22 22:35:00,28.8,23.1,30.28,SSE,152,0.0,4.0,79,0.00,,,0.00,VWS V14.01,2013-02-23 03:35:00,
2013-02-22 22:36:00,28.8,23.1,30.28,SSE,152,0.0,4.0,79,0.00,,,0.00,VWS V14.01,2013-02-23 03:36:00,
2013-02-22 22:40:00,28.8,23.1,30.28,ENE,61,2.0,4.0,79,0.00,,,0.00,VWS V14.01,2013-02-23 03:40:00,
2013-02-22 22:41:00,28.8,23.1,30.28,ENE,61,2.0,2.0,79,0.00,,,0.00,VWS V14.01,2013-02-23 03:41:00,
2013-02-22 22:42:00,28.8,22.8,30.28,ENE,61,0.0,2.0,78,0.00,,,0.00,VWS V14.01,2013-02-23 03:42:00,
2013-02-22 22:45:00,28.8,22.8,30.28,NW,316,2.0,5.0,78,0.00,,,0.00,VWS V14.01,2013-02-23 03:45:00,
2013-02-22 22:46:00,28.8,22.8,30.28,NW,316,1.0,2.0,78,0.00,,,0.00,VWS V14.01,2013-02-23 03:46:00,
2013-02-22 22:47:00,28.8,22.8,30.28,NW,316,0.0,3.0,78,0.00,,,0.00,VWS V14.01,2013-02-23 03:47:00,
2013-02-22 22:50:00,29.2,22.9,30.28,North,349,2.0,4.0,77,0.00,,,0.00,VWS V14.01,2013-02-23 03:50:00,
2013-02-22 22:51:00,29.2,22.9,30.28,WSW,257,3.0,3.0,77,0.00,,,0.00,VWS V14.01,2013-02-23 03:51:00,
2013-02-22 22:52:00,29.2,22.9,30.28,WSW,257,2.0,3.0,77,0.00,,,0.00,VWS V14.01,2013-02-23 03:52:00,
2013-02-22 22:55:00,29.2,22.9,30.28,WSW,254,0.0,3.0,77,0.00,,,0.00,VWS V14.01,2013-02-23 03:55:00,
2013-02-22 22:56:00,29.2,22.9,30.28,WSW,254,0.0,0.0,77,0.00,,,0.00,VWS V14.01,2013-02-23 03:56:00,
2013-02-22 22:57:00,29.2,22.9,30.28,WSW,254,0.0,0.0,77,0.00,,,0.00,VWS V14.01,2013-02-23 03:57:00,
2013-02-22 23:00:00,29.0,23.0,30.28,WSW,254,0.0,3.0,78,0.00,,,0.00,VWS V14.01,2013-02-23 04:00:00,
2013-02-22 23:01:00,28.9,22.9,30.28,WSW,254,0.0,0.0,78,0.00,,,0.00,VWS V14.01,2013-02-23 04:01:00,
2013-02-22 23:02:00,28.9,22.9,30.28,WSW,254,0.0,0.0,78,0.00,,,0.00,VWS V14.01,2013-02-23 04:02:00,
2013-02-22 23:05:00,28.6,22.9,30.28,WSW,253,0.0,2.0,79,0.00,,,0.00,VWS V14.01,2013-02-23 04:05:00,
2013-02-22 23:06:00,28.6,22.9,30.28,WSW,253,0.0,0.0,79,0.00,,,0.00,VWS V14.01,2013-02-23 04:06:00,
2013-02-22 23:07:00,28.5,22.8,30.28,WSW,254,0.0,0.0,79,0.00,,,0.00,VWS V14.01,2013-02-23 04:07:00,
2013-02-22 23:10:00,28.3,22.9,30.28,WSW,253,0.0,1.0,80,0.00,,,0.00,VWS V14.01,2013-02-23 04:10:00,
2013-02-22 23:11:00,28.3,22.9,30.28,WSW,254,2.0,2.0,80,0.00,,,0.00,VWS V14.01,2013-02-23 04:11:00,
2013-02-22 23:12:00,28.3,22.9,30.27,WSW,254,1.0,2.0,80,0.00,,,0.00,VWS V14.01,2013-02-23 04:12:00,
2013-02-22 23:15:00,28.3,22.9,30.27,NNW,331,0.0,4.0,80,0.00,,,0.00,VWS V14.01,2013-02-23 04:15:00,
2013-02-22 23:16:00,28.3,22.9,30.27,NNW,332,1.0,1.0,80,0.00,,,0.00,VWS V14.01,2013-02-23 04:16:00,
2013-02-22 23:17:00,28.3,22.9,30.27,NNW,332,2.0,2.0,80,0.00,,,0.00,VWS V14.01,2013-02-23 04:17:00,
2013-02-22 23:20:00,28.4,23.0,30.27,NNW,338,1.0,3.0,80,0.00,,,0.00,VWS V14.01,2013-02-23 04:20:00,
2013-02-22 23:25:00,28.6,22.9,30.27,SE,135,2.0,4.0,79,0.00,,,0.00,VWS V14.01,2013-02-23 04:25:00,
2013-02-22 23:30:00,29.0,23.0,30.27,SSW,202,1.0,3.0,78,0.00,,,0.00,VWS V14.01,2013-02-23 04:30:00,
2013-02-22 23:35:00,29.4,23.1,30.27,NW,315,2.0,6.0,77,0.00,,,0.00,VWS V14.01,2013-02-23 04:35:00,
2013-02-22 23:40:00,29.8,23.5,30.26,NW,315,1.0,4.0,77,0.00,,,0.00,VWS V14.01,2013-02-23 04:40:00,
2013-02-22 23:45:00,29.7,23.4,30.26,NW,315,1.0,3.0,77,0.00,,,0.00,VWS V14.01,2013-02-23 04:45:00,
2013-02-22 23:50:00,29.5,23.5,30.26,NW,315,1.0,3.0,78,0.00,,,0.00,VWS V14.01,2013-02-23 04:50:00,
2013-02-22 23:55:00,29.2,23.2,30.26,NW,315,1.0,3.0,78,0.00,,,0.00,VWS V14.01,2013-02-23 04:55:00,